Flag for U.S.A. Weather past 2 weeks in Atlanta, Georgia, U.S.A.

Now
67 °F

Clear.


Feels Like: 67 °F
Forecast: 68 / 87 °F
Wind: No wind

Location: Fulton County Airport-Brown Field

Current Time: Sep 1, 2015 at 9:08:12 AM

Latest Report: Sep 1, 2015 at 7:53 AM


Visibility: 10 mi

Pressure: 30.12 "Hg

Humidity: 93%

Dew point: 65 °F

Location of AtlantaLocation

Historic Weather in Atlanta — Graph

°F

Atlanta temperature yesterday

Maximum temperature yesterday: 82 °F (at 6:53 PM)
Minimum temperature yesterday: 68 °F (at 3:53 AM)
Average temperature yesterday: 73 °F

Past Weeks' High & Low Weather Summary

 TemperatureHumidityPressure
High90 °F (Aug 24, 4:53 PM)97% (Aug 19, 2:53 AM)30.19 "Hg (Aug 19, 2:53 AM)
Low61 °F (Aug 26, 5:53 AM)36% (Aug 26, 5:53 PM)29.89 "Hg (Aug 24, 6:53 PM)
Average76 °F76%30.02 "Hg
* Reported Aug 17 7:53 AM — Sep 1 7:53 AM, Atlanta, Weather by CustomWeather, © 2015

Note: Actual official high and low records may vary slightly from our data, if they occured in-between our weather recording intervals... More about our weather records

Advertising

Atlanta weather history for previous 24 hours

 ConditionsComfort  
Time TempWeatherWind HumidityBarometerVisibility
7:53 AM
Tue, Sep 1
67 °FClear.No wind93%30.12 "Hg10 mi
6:53 AM66 °FClear.3 mph90%30.10 "Hg10 mi
5:53 AM66 °FPassing clouds.No wind93%30.09 "Hg10 mi
4:53 AM67 °FClear.No wind93%30.09 "Hg8 mi
3:53 AM67 °FClear.No wind93%30.08 "Hg10 mi
2:53 AM68 °FClear.No wind90%30.09 "Hg10 mi
1:53 AM69 °FClear.No wind90%30.09 "Hg10 mi
12:53 AM69 °FClear.No wind90%30.10 "Hg10 mi
10:53 PM
Mon, Aug 31
71 °FClear.No wind93%30.09 "Hg10 mi
9:53 PM72 °FClear.No wind91%30.08 "Hg10 mi
8:53 PM73 °FSunny.No wind90%30.06 "Hg10 mi
7:53 PM79 °FSunny.No wind69%30.05 "Hg10 mi
6:53 PM82 °FPassing clouds.No wind63%30.05 "Hg10 mi
5:53 PM80 °FOvercast.3 mph64%30.05 "Hg10 mi
4:53 PM81 °FOvercast.No wind62%30.06 "Hg10 mi
3:53 PM81 °FOvercast.5 mph65%30.07 "Hg10 mi
2:53 PM77 °FOvercast.No wind74%30.10 "Hg10 mi
2:02 PM75 °FMostly cloudy.6 mph85%30.14 "Hg10 mi
1:53 PM75 °FMostly cloudy.6 mph82%30.11 "Hg10 mi
12:53 PM72 °FLow clouds.3 mph87%30.14 "Hg10 mi
12:00 PM71 °FCloudy.6 mph90%30.16 "Hg10 mi
10:53 AM70 °FMostly cloudy.7 mph90%30.13 "Hg9 mi
9:53 AM69 °FOvercast.6 mph90%30.11 "Hg7 mi
Weather by CustomWeather, © 2015

See weather overviewHow to use our weather pages